Location: Spruce Knob
(38.6995°N, 79.5330°W)
Time: 21:48:18
(UTC-04:00)

A-11 Canister half - Pass Details

Date: 28 January 2022
Orbit: 1513 x 1686 km, 47.2° (Epoch: 24 May)

Event Time Altitude Azimuth Distance (km) Brightness Sun altitude
Rises 12:53:47 0° 170° (S) 4,842 12.6 33.0°
Reaches altitude 10° 12:59:43 10° 143° (SE) 3,819 11.8 32.8°
Maximum altitude 13:03:03 12° 122° (ESE) 3,621 11.4 32.8°
Drops below altitude 10° 13:06:21 10° 102° (ESE) 3,776 11.2 32.6°
Sets 13:12:03 0° 75° (ENE) 4,725 11.3 32.4°
